Cloud_Cover
0 0 0 0 0 1 0 0 0 0 0 0 20 19 98 64 69 23 0 0 0 0 0 49 18 0 12 50 44 99 18 5 52 45 47 87 78 93 67 100 73 50 5 5 82
0 0 0 0 0 7 5 1 0 0 0 9 17 69 100 100 5 0 0 0 0 0 0 0 0 0 1 44 54 54 26 5 40 34 70 98 72 51 100 59 54 16 26 27 99
0 0 0 0 0 1 7 12 3 0 0 14 28 99 96 26 0 0 0 0 0 0 0 0 0 0 0 31 16 34 13 6 7 11 66 50 93 100 42 5 40 75 94 84 54
0 0 0 0 0 0 13 1 0 0 0 14 47 8 54 8 0 0 0 0 0 0 0 0 0 0 0 0 5 19 5 42 5 5 41 85 90 99 75 85 80 30 70 9 34
0 0 0 0 0 0 2 1 7 0 4 8 26 23 0 0 0 0 0 0 0 0 0 0 0 0 0 0 0 5 5 29 5 8 30 15 98 85 100 84 100 24 26 13 27
0 0 0 0 0 0 0 0 2 0 0 0 0 0 0 0 0 0 0 0 0 0 0 0 0 0 0 0 0 5 5 5 30 41 5 5 25 64 100 87 92 1 1 6 12
0 0 0 0 0 0 0 0 0 0 0 0 0 0 0 0 0 0 0 0 0 0 0 0 0 0 0 0 0 5 4 1 5 5 12 30 5 8 100 23 22 28 21 5 17
0 0 0 0 0 0 0 0 0 0 0 0 2 0 0 0 0 0 0 0 0 0 0 0 0 0 0 0 0 0 3 4 5 5 5 7 43 5 5 32 8 31 40 3 1
0 0 0 0 0 0 0 0 0 0 13 24 5 0 0 0 0 0 0 0 0 0 0 0 0 0 0 0 0 0 0 3 0 5 5 87 86 5 5 6 1 9 17 0 0
0 0 0 0 0 0 0 0 0 2 4 4 0 0 0 0 0 0 0 0 0 0 0 0 0 0 0 0 0 0 0 0 3 3 2 5 15 5 4 2 1 0 2 0 0
0 0 0 0 0 0 0 0 0 0 0 0 0 0 0 0 0 0 0 0 0 0 0 0 0 0 0 0 0 0 0 0 20 32 4 2 5 5 5 92 8 0 5 5 0
0 0 0 0 0 0 0 0 0 0 0 0 0 0 0 0 0 0 0 0 0 0 0 0 0 0 0 0 0 0 0 0 4 25 4 2 5 5 9 73 6 5 5 5 0
0 0 0 0 0 0 0 0 0 0 0 0 0 0 0 0 0 0 0 0 0 0 0 0 0 0 0 0 0 0 0 0 0 4 5 0 29 5 64 53 5 2 3 3 5
0 0 0 0 0 0 0 0 0 0 0 0 0 0 0 0 0 0 0 0 0 0 0 0 0 0 0 0 0 0 0 0 0 1 5 5 0 5 68 100 7 3 0 1 0
0 0 0 0 0 0 0 0 0 0 0 0 0 0 0 0 0 0 0 0 0 0 0 0 0 0 0 0 0 0 0 0 0 0 2 5 16 0 0 4 13 3 0 0 2
0 0 1 0 0 0 0 0 0 0 0 0 0 0 0 0 0 0 0 0 0 0 0 0 0 0 0 0 0 0 0 0 0 0 0 0 2 0 0 0 5 5 0 0 5
0 0 0 0 0 0 0 0 0 0 0 0 0 0 0 0 0 0 0 0 0 0 0 0 0 0 0 0 0 0 0 0 0 0 0 0 0 0 0 0 3 4 4 4 5
1 0 0 0 0 0 0 0 0 0 0 0 0 0 0 0 0 0 0 0 0 0 0 0 0 0 0 0 0 0 0 0 0 0 0 0 0 0 0 0 0 0 69 68 5
0 0 0 0 0 0 0 0 0 0 0 0 0 0 0 0 0 0 0 0 0 0 0 0 0 0 0 0 0 0 0 0 0 0 0 0 0 0 0 0 0 3 63 20 16
0 0 0 0 0 0 0 0 0 0 0 0 0 0 0 0 0 0 0 0 0 0 0 0 0 0 0 0 0 0 0 0 0 0 0 0 0 0 0 0 0 2 5 16 99
0 0 0 0 0 0 0 0 0 0 0 0 0 0 0 0 0 0 0 0 0 0 0 0 1 0 0 0 0 0 3 0 0 0 0 0 0 0 0 0 0 1 5 5 99
0 0 0 0 0 0 0 5 5 3 0 5 5 5 5 5 5 5 4 0 0 0 0 3 3 0 0 0 0 0 10 1 0 0 0 0 0 0 0 0 0 2 5 29 19
2 0 0 0 3 6 5 5 4 5 5 5 42 77 86 76 86 43 7 5 5 1 3 5 32 2 0 0 1 3 2 0 1 0 0 0 0 0 0 0 0 0 40 59 8
0 0 3 3 5 28 100 11 13 30 7 5 48 99 100 97 79 50 42 65 5 5 3 1 5 0 0 0 8 76 60 5 1 2 0 0 1 0 0 0 0 69 16 1 4
1 5 5 6 50 99 31 30 89 88 49 68 61 77 100 100 100 96 98 86 80 94 86 5 5 0 0 0 4 0 30 23 5 0 0 0 3 0 0 0 0 92 5 5 5
5 10 10 90 100 61 74 100 100 100 100 78 100 100 100 96 40 80 5 82 53 100 100 31 27 5 0 0 4 5 0 22 5 5 0 0 0 0 0 0 0 0 1 2 6
30 44 87 100 100 100 99 100 100 100 100 82 100 100 100 45 85 33 10 15 72 32 56 19 95 17 0 25 51 5 0 1 3 0 4 0 0 0 0 0 0 0 0 0 5